Location: Oshawa
(43.9000°N, 78.8670°W)
Time: 18:42:57
(UTC-05:00)

Courier 1B - All Passes

Search period start: 13 February 2016 00:00
Search period end: 23 February 2016 00:00
Orbit: 962 x 1209 km, 28.3° (Epoch: 12 February)

Date Brightness Start Highest point End Pass type
(mag) Time Alt. Az. Time Alt. Az. Time Alt. Az.
13 Feb - 08:59:34 10° SSW 09:04:21 18° SSE 09:09:11 10° ESE daylight
13 Feb - 10:51:29 10° SW 10:57:31 25° S 11:03:33 10° SE daylight
13 Feb - 12:45:11 10° WSW 12:50:45 21° SSW 12:56:13 10° SSE daylight
13 Feb - 14:42:19 10° SW 14:43:41 11° SSW 14:45:04 10° SSW daylight
14 Feb - 08:06:55 10° S 08:10:47 15° SSE 08:14:41 10° SE daylight
14 Feb - 09:57:59 10° SW 10:03:51 24° S 10:09:47 10° ESE daylight
14 Feb - 11:51:14 10° WSW 11:57:07 23° S 12:02:56 10° SE daylight
14 Feb - 13:46:33 10° SW 13:50:10 14° SSW 13:53:45 10° S daylight
15 Feb - 07:15:07 10° S 07:17:14 11° SSE 07:19:23 10° SE daylight
15 Feb - 09:04:39 10° SW 09:10:13 22° SSE 09:15:52 10° ESE daylight
15 Feb - 10:57:26 10° SW 11:03:27 24° S 11:09:28 10° SE daylight
15 Feb - 12:51:56 10° SW 12:56:36 17° SSW 13:01:13 10° SSE daylight
16 Feb - 08:11:32 10° SSW 08:16:36 19° SSE 08:21:47 10° ESE daylight
16 Feb - 10:03:47 10° SW 10:09:47 25° S 10:15:51 10° SE daylight
16 Feb - 11:57:42 10° WSW 12:03:00 20° SSW 12:08:15 10° SSE daylight
17 Feb - 07:18:42 10° SSW 07:23:02 16° SSE 07:27:27 10° SE daylight
17 Feb - 09:10:16 10° SW 09:16:07 24° S 09:22:06 10° SE daylight
17 Feb - 11:03:43 10° WSW 11:09:22 22° S 11:15:02 10° SE daylight
17 Feb - 12:59:53 10° SW 13:02:23 12° SSW 13:04:53 10° S daylight
18 Feb - 06:26:21 10° S 06:29:30 13° SSE 06:32:42 10° SE visible
18 Feb - 08:16:54 10° SW 08:22:29 23° S 08:28:14 10° ESE daylight
18 Feb - 10:09:54 10° SW 10:15:42 23° S 10:21:36 10° SE daylight
18 Feb - 12:04:50 10° SW 12:08:50 15° SSW 12:12:49 10° S daylight
19 Feb - 07:23:43 10° SSW 07:28:53 21° SSE 07:34:13 10° ESE daylight
19 Feb - 09:16:14 10° SW 09:22:03 24° S 09:28:01 10° SE daylight
19 Feb - 11:10:27 10° SW 11:15:14 18° SSW 11:20:03 10° SSE daylight
20 Feb - 06:30:47 10° SSW 06:35:20 18° SSE 06:40:02 10° SE visible
20 Feb - 08:22:43 10° SW 08:28:25 24° S 08:34:19 10° SE daylight
20 Feb - 10:16:23 10° WSW 10:21:37 20° SSW 10:26:56 10° SSE daylight
21 Feb - 05:38:11 10° S 05:41:49 15° SSE 05:45:33 10° SE visible
21 Feb - 07:29:20 10° SW 07:34:49 23° S 07:40:29 10° SE daylight
21 Feb - 09:22:32 10° SW 09:27:59 22° S 09:33:35 10° SE daylight
21 Feb - 11:18:14 10° SW 11:21:03 12° SSW 11:23:54 10° S daylight
22 Feb - 04:46:20 10° S 04:48:22 11° SSE 04:50:25 10° SE visible
22 Feb - 06:36:06 10° SW 06:41:14 21° S 06:46:33 10° SE visible
22 Feb - 08:28:52 10° SW 08:34:22 23° S 08:40:04 10° SE daylight
22 Feb - 10:23:29 10° SW 10:27:29 15° SSW 10:31:32 10° SSE daylight
